QPF
0.00 0.00 0.00 0.00 0.00 0.00 0.00 0.00 0.00 0.00 0.00 0.00 0.00 0.00 0.00 0.00 0.00 0.00 0.00 0.00 0.00 0.00
0.00 0.00 0.00 0.00 0.00 0.00 0.00 0.00 0.00 0.00 0.00 0.00 0.00 0.00 0.00 0.00 0.00 0.00 0.00 0.00 0.00 0.00
0.00 0.00 0.00 0.00 0.00 0.00 0.00 0.00 0.00 0.00 0.00 0.01 0.01 0.01 0.01 0.02 0.02 0.01 0.01 0.00 0.00 0.00
0.00 0.00 0.00 0.00 0.00 0.00 0.00 0.00 0.00 0.00 0.01 0.03 0.04 0.05 0.05 0.05 0.04 0.03 0.01 0.00 0.00 0.00
0.00 0.00 0.00 0.00 0.00 0.00 0.00 0.00 0.00 0.00 0.00 0.00 0.01 0.02 0.03 0.04 0.03 0.02 0.00 0.00 0.00 0.00
0.00 0.00 0.00 0.00 0.00 0.00 0.00 0.00 0.00 0.00 0.00 0.00 0.00 0.02 0.03 0.03 0.02 0.01 0.00 0.00 0.00 0.00
0.00 0.00 0.00 0.00 0.00 0.00 0.00 0.00 0.00 0.00 0.00 0.00 0.01 0.02 0.01 0.01 0.00 0.00 0.00 0.00 0.00 0.00
0.00 0.00 0.00 0.00 0.00 0.00 0.00 0.00 0.00 0.01 0.01 0.01 0.01 0.00 0.00 0.00 0.00 0.00 0.00 0.00 0.00 0.00
0.00 0.00 0.00 0.00 0.00 0.00 0.00 0.00 0.00 0.00 0.00 0.00 0.00 0.00 0.00 0.00 0.00 0.00 0.00 0.00 0.00 0.00
0.00 0.00 0.00 0.00 0.00 0.00 0.00 0.00 0.00 0.00 0.00 0.00 0.00 0.00 0.00 0.00 0.00 0.00 0.00 0.00 0.00 0.00
0.00 0.00 0.00 0.01 0.00 0.01 0.01 0.00 0.00 0.00 0.00 0.00 0.00 0.00 0.00 0.00 0.00 0.00 0.00 0.00 0.00 0.00
0.00 0.00 0.00 0.00 0.00 0.00 0.00 0.00 0.00 0.00 0.00 0.00 0.00 0.00 0.00 0.00 0.00 0.00 0.00 0.00 0.00 0.00
0.00 0.00 0.00 0.00 0.00 0.00 0.00 0.00 0.00 0.00 0.00 0.00 0.00 0.00 0.00 0.00 0.00 0.00 0.00 0.00 0.00 0.00
0.00 0.00 0.00 0.00 0.00 0.00 0.00 0.00 0.00 0.00 0.00 0.00 0.00 0.00 0.00 0.00 0.00 0.00 0.00 0.00 0.00 0.00
MSLP
1019.49 1019.30 1018.79 1018.07 1017.44 1016.80 1016.32 1015.85 1015.56 1015.27 1014.95 1014.76 1014.61 1014.64 1014.79 1014.76 1014.60 1014.66 1014.79 1014.81 1014.86 1014.74
1019.95 1019.48 1019.03 1018.34 1017.78 1017.23 1016.65 1016.13 1015.50 1015.11 1014.97 1014.91 1014.84 1014.77 1014.81 1014.86 1014.75 1014.68 1014.78 1014.84 1014.83 1014.89
1019.84 1019.45 1018.99 1018.42 1017.86 1017.30 1016.76 1016.26 1015.74 1015.23 1014.78 1014.55 1014.55 1014.65 1014.74 1014.87 1014.83 1014.72 1014.79 1014.83 1014.93 1014.91
1019.46 1019.08 1018.72 1018.33 1017.86 1017.40 1016.82 1016.26 1015.72 1015.26 1014.82 1014.51 1014.45 1014.43 1014.53 1014.58 1014.66 1014.57 1014.78 1014.79 1014.87 1014.60
1019.56 1019.12 1018.63 1018.11 1017.59 1017.08 1016.56 1016.04 1015.59 1015.08 1014.65 1014.32 1014.10 1014.11 1014.12 1014.33 1014.58 1014.62 1014.72 1014.68 1014.34 1014.42
1019.51 1019.05 1018.62 1018.12 1017.53 1016.87 1016.26 1015.67 1015.15 1014.76 1014.37 1014.02 1013.89 1013.93 1014.08 1014.32 1014.37 1014.61 1014.44 1014.25 1014.21 1014.01
1019.43 1018.96 1018.46 1017.84 1017.34 1016.73 1016.08 1015.45 1014.86 1014.40 1014.06 1013.87 1014.00 1014.14 1014.20 1014.20 1014.13 1014.05 1013.95 1013.89 1013.99 1013.66
1019.16 1018.67 1018.08 1017.49 1016.97 1016.42 1015.92 1015.44 1014.91 1014.35 1013.98 1013.95 1014.06 1014.18 1013.79 1013.77 1013.97 1013.92 1013.79 1013.63 1013.74 1013.75
1018.84 1018.39 1017.83 1017.23 1016.69 1016.11 1015.77 1015.47 1015.20 1014.95 1014.65 1014.33 1014.13 1014.07 1013.85 1013.85 1013.71 1013.49 1013.66 1013.65 1013.81 1013.86
1018.74 1018.24 1017.77 1017.26 1016.74 1016.37 1016.06 1015.77 1015.51 1015.24 1014.87 1014.51 1014.25 1014.04 1013.86 1013.64 1013.45 1013.51 1013.64 1013.68 1014.06 1014.43
1018.80 1018.34 1017.78 1017.33 1017.00 1016.69 1016.39 1016.11 1015.93 1015.67 1015.35 1014.98 1014.68 1014.15 1013.64 1013.33 1013.28 1013.29 1013.63 1014.24 1014.82 1015.02
1018.96 1018.57 1018.16 1017.80 1017.41 1017.07 1016.80 1016.61 1016.45 1016.12 1015.74 1015.31 1014.98 1014.46 1013.98 1013.67 1013.69 1014.17 1014.74 1015.07 1015.29 1015.43
1018.91 1018.58 1018.43 1018.19 1017.95 1017.78 1017.45 1017.19 1016.96 1016.74 1016.50 1016.18 1015.84 1015.42 1014.94 1014.68 1014.74 1015.25 1015.53 1015.76 1015.81 1015.61
1019.62 1019.32 1019.13 1018.93 1018.64 1018.39 1018.11 1017.87 1017.71 1017.49 1017.34 1017.02 1016.80 1016.56 1016.19 1015.96 1015.98 1016.20 1016.22 1016.13 1015.99 1015.62
Thickness
5595 5592 5590 5592 5593 5595 5593 5591 5587 5585 5584 5581 5578 5574 5569 5566 5563 5558 5555 5552 5550 5549
5573 5571 5570 5570 5569 5570 5570 5572 5572 5570 5567 5563 5559 5556 5552 5549 5545 5541 5536 5533 5532 5531
5555 5553 5551 5550 5549 5549 5549 5548 5549 5550 5550 5549 5545 5540 5535 5531 5528 5525 5520 5516 5512 5510
5540 5536 5532 5529 5526 5524 5526 5527 5529 5531 5532 5531 5529 5526 5521 5517 5512 5509 5503 5499 5496 5497
5521 5517 5515 5513 5511 5508 5507 5508 5509 5511 5514 5515 5514 5510 5507 5502 5496 5491 5487 5485 5485 5482
5503 5500 5497 5495 5493 5492 5492 5494 5496 5499 5501 5504 5503 5499 5494 5487 5482 5476 5474 5473 5471 5471
5491 5488 5485 5483 5478 5474 5474 5479 5484 5488 5492 5494 5490 5486 5482 5476 5470 5467 5464 5462 5459 5461
5480 5479 5478 5474 5468 5465 5464 5468 5474 5481 5485 5485 5482 5477 5475 5470 5461 5456 5454 5455 5453 5452
5475 5473 5472 5470 5467 5466 5465 5467 5469 5473 5475 5476 5474 5470 5467 5463 5458 5455 5452 5451 5449 5448
5471 5471 5469 5467 5466 5465 5465 5466 5468 5469 5471 5471 5469 5467 5465 5462 5459 5455 5451 5450 5446 5443
5469 5468 5467 5465 5462 5462 5462 5463 5464 5466 5467 5467 5466 5468 5468 5466 5464 5461 5455 5447 5441 5439
5470 5468 5465 5462 5461 5461 5462 5463 5463 5464 5465 5466 5466 5468 5468 5467 5463 5456 5448 5443 5439 5436
5473 5471 5467 5464 5463 5462 5463 5462 5462 5462 5461 5462 5462 5462 5463 5462 5457 5450 5444 5438 5435 5435
5471 5470 5468 5465 5464 5464 5463 5463 5461 5461 5459 5459 5458 5456 5455 5453 5448 5442 5438 5436 5435 5435